OBJECT PX

Last updated on Sun Feb 03 2019 00:02:08 GMT+0000 (Coordinated Universal Time)

1 44031U 98067PX 19032.79794211 .00018975 00000-0 29627-3 0 9996 2 44031 51.6416 314.5466 0003280 16.9840 343.1791 15.53836682 237

Satellite not in orbit

OBJECT PX